CW3643 Weather Reports


time (UTC)temp
C
wind
direction
speed
KPH
gust
KPH
rain 1hr
cm
rain 24hr
cm
rain mn
cm
humidity
%
barometer
mb
20260505023028 12 329 11.3 16.1 0.00 0.00 0.00 78 1017.2
20260505022546 12 318 11.3 16.1 0.00 0.00 0.00 78 1017.3
20260505022029 12 328 14.5 19.3 0.00 0.00 0.00 78 1017.3
20260505021526 12 303 12.9 19.3 0.00 0.00 0.00 78 1017.4
20260505021024 12 293 12.9 17.7 0.00 0.00 0.00 78 1017.5
20260505020527 12 324 12.9 17.7 0.00 0.00 0.00 78 1017.5
20260505020052 12 316 11.3 16.1 0.00 0.00 0.00 78 1017.5
20260505015520 12 325 11.3 17.7 0.00 0.00 0.00 78 1017.6
20260505015026 12 304 11.3 17.7 0.00 0.00 0.00 78 1017.5
20260505014531 12 320 11.3 14.5 0.00 0.00 0.00 78 1017.6
20260505014035 12 305 9.7 14.5 0.00 0.00 0.00 78 1017.7
20260505013513 12 316 8.0 12.9 0.00 0.00 0.00 78 1017.7
20260505013011 12 305 9.7 12.9 0.00 0.00 0.00 78 1017.8
20260505012528 12 344 9.7 14.5 0.00 0.00 0.00 78 1017.8
20260505012026 12 303 9.7 14.5 0.00 0.00 0.00 78 1017.9
20260505011524 12 280 8.0 14.5 0.00 0.00 0.00 78 1017.9
20260505011029 12 320 6.4 12.9 0.00 0.00 0.00 78 1018.0
20260505010527 12 333 9.7 12.9 0.00 0.00 0.00 78 1018.0
20260505010032 12 325 8.0 11.3 0.00 0.00 0.00 78 1018.0
20260505005521 13 334 8.0 12.9 0.00 0.00 0.00 78 1018.0
20260505004548 13 328 9.7 12.9 0.00 0.00 0.00 77 1018.2
20260505004032 13 354 6.4 11.3 0.00 0.00 0.00 77 1018.2
20260505003529 13 315 8.0 11.3 0.00 0.00 0.00 77 1018.2
20260505003055 13 310 8.0 12.9 0.00 0.00 0.00 77 1018.2
20260505002531 13 336 9.7 12.9 0.00 0.00 0.00 77 1018.3
20260505002036 13 320 9.7 12.9 0.00 0.00 0.00 77 1018.3
20260505001513 13 318 8.0 11.3 0.00 0.00 0.00 77 1018.3
20260505001012 13 328 6.4 11.3 0.00 0.00 0.00 77 1018.4
20260505000518 13 328 8.0 12.9 0.00 0.00 0.00 76 1018.5
20260504235514 13 316 8.0 11.3 0.00 0.00 0.00 76 1018.5
20260504235020 13 327 8.0 12.9 0.00 0.00 0.00 76 1018.5
20260504234525 13 311 9.7 12.9 0.00 0.00 0.00 76 1018.5
20260504234023 13 332 9.7 12.9 0.00 0.00 0.00 76 1018.6
20260504233528 13 320 8.0 12.9 0.00 0.00 0.00 76 1018.7
20260504233013 13 305 9.7 14.5 0.00 0.00 0.00 76 1018.6
20260504232519 13 315 9.7 14.5 0.00 0.00 0.00 76 1018.6
20260504232044 13 285 8.0 12.9 0.00 0.00 0.00 76 1018.6
20260504231521 13 313 9.7 12.9 0.00 0.00 0.00 76 1018.6
20260504231028 13 308 6.4 12.9 0.00 0.00 0.00 76 1018.6
20260504230526 13 313 8.0 12.9 0.00 0.00 0.00 76 1018.6
20260504225524 13 292 6.4 11.3 0.00 0.00 0.00 76 1018.7
20260504224552 13 320 6.4 9.7 0.00 0.00 0.00 76 1018.8
20260504224036 13 298 6.4 11.3 0.00 0.00 0.00 76 1018.8
20260504223013 13 297 6.4 11.3 0.00 0.00 0.00 76 1018.8
20260504222530 13 316 6.4 11.3 0.00 0.00 0.00 76 1018.8
20260504222029 13 327 6.4 14.5 0.00 0.00 0.00 76 1018.8
20260504221514 13 313 8.0 14.5 0.00 0.00 0.00 76 1018.7
20260504221059 13 313 6.4 12.9 0.00 0.00 0.00 76 1018.8
20260504220521 13 322 6.4 12.9 0.00 0.00 0.00 76 1018.8
20260504220019 13 325 8.0 12.9 0.00 0.00 0.00 76 1018.8
20260504215515 13 326 6.4 14.5 0.00 0.00 0.00 76 1018.9
20260504215031 13 314 8.0 0.0 0.00 0.00 0.00 76 1018.7
20260504214533 13 314 8.0 11.3 0.00 0.00 0.00 76 1018.9
20260504214010 13 335 4.8 11.3 0.00 0.00 0.00 75 1018.9
20260504213535 13 316 6.4 11.3 0.00 0.00 0.00 75 1018.8
20260504213032 13 328 6.4 12.9 0.00 0.00 0.00 75 1018.8
20260504212514 13 320 8.0 11.3 0.00 0.00 0.00 75 1018.7
20260504212012 13 355 4.8 14.5 0.00 0.00 0.00 75 1018.7
20260504211511 13 322 6.4 14.5 0.00 0.00 0.00 75 1018.7
20260504211015 13 348 9.7 14.5 0.00 0.00 0.00 74 1018.7
20260504210528 14 303 6.4 12.9 0.00 0.00 0.00 74 1018.6
20260504210019 14 314 6.4 14.5 0.00 0.00 0.00 74 1018.6
20260504205515 14 315 8.0 14.5 0.00 0.00 0.00 74 1018.5
20260504205039 14 322 8.0 12.9 0.00 0.00 0.00 74 1018.4
20260504204515 14 327 6.4 11.3 0.00 0.00 0.00 73 1018.3
20260504204021 14 310 6.4 12.9 0.00 0.00 0.00 73 1018.3
20260504203538 14 338 8.0 12.9 0.00 0.00 0.00 73 1018.1
20260504203042 14 326 4.8 11.3 0.00 0.00 0.00 73 1018.1
20260504202518 14 320 6.4 14.5 0.00 0.00 0.00 73 1018.1
20260504202024 14 343 8.0 16.1 0.00 0.00 0.00 73 1018.0
20260504201549 14 308 8.0 16.1 0.00 0.00 0.00 73 1017.9
20260504201046 14 357 8.0 14.5 0.00 0.00 0.00 72 1017.9
20260504200017 15 347 11.3 16.1 0.00 0.00 0.00 72 1017.7
20260504195513 15 295 6.4 17.7 0.00 0.00 0.00 72 1017.6
20260504195011 15 326 9.7 19.3 0.00 0.00 0.00 72 1017.5
20260504194020 15 348 12.9 19.3 0.00 0.00 0.00 71 1017.5
20260504193513 15 315 8.0 17.7 0.00 0.00 0.00 70 1017.5
20260504193011 15 302 11.3 22.5 0.00 0.00 0.00 70 1017.4
20260504192528 15 311 14.5 22.5 0.00 0.00 0.00 69 1017.3
20260504192024 15 346 14.5 24.1 0.00 0.00 0.00 69 1017.4
20260504191616 15 342 14.5 24.1 0.00 0.00 0.00 69 1017.3
20260504191055 15 336 16.1 22.5 0.00 0.00 0.00 69 1017.2
20260504190020 15 324 11.3 29.0 0.00 0.00 0.00 67 1017.2
20260504185515 15 328 19.3 30.6 0.00 0.00 0.00 66 1017.3
20260504185020 15 344 14.5 25.7 0.00 0.00 0.00 66 1017.2
20260504184520 16 327 19.3 25.7 0.00 0.00 0.00 65 1017.1
20260504184026 16 343 14.5 24.1 0.00 0.00 0.00 63 1017.0
20260504183034 16 323 19.3 33.8 0.00 0.00 0.00 63 1017.0
20260504182025 16 334 19.3 29.0 0.00 0.00 0.00 63 1016.9
20260504181530 16 351 14.5 25.7 0.00 0.00 0.00 64 1016.8
20260504181028 16 355 19.3 29.0 0.00 0.00 0.00 64 1016.9
20260504180533 16 353 19.3 30.6 0.00 0.00 0.00 64 1016.9
20260504175524 16 332 24.1 33.8 0.00 0.00 0.00 61 1016.9
20260504175029 16 330 17.7 33.8 0.00 0.00 0.00 60 1016.9
20260504174527 16 319 25.7 33.8 0.00 0.00 0.00 60 1016.9
20260504174032 16 321 24.1 37.0 0.00 0.00 0.00 58 1016.9
20260504173556 16 318 20.9 37.0 0.00 0.00 0.00 59 1016.9
20260504173010 16 313 24.1 37.0 0.00 0.00 0.00 59 1016.9
20260504172527 16 333 24.1 33.8 0.00 0.00 0.00 60 1016.9
20260504172020 16 341 19.3 30.6 0.00 0.00 0.00 62 1016.9
20260504171525 17 357 24.1 30.6 0.00 0.00 0.00 60 1016.9
20260504171021 16 8 19.3 30.6 0.00 0.00 0.00 60 1016.9
20260504170526 16 320 17.7 29.0 0.00 0.00 0.00 59 1016.8
20260504151027 17 190 20.9 33.8 0.00 0.00 0.00 53 1016.8
20260504150612 18 190 20.9 33.8 0.00 0.00 0.00 52 1016.9
20260504141022 18 190 19.3 33.8 0.00 0.00 0.00 54 1017.0
20260504140526 18 190 16.1 27.4 0.00 0.00 0.00 53 1016.9
20260504130536 18 190 9.7 22.5 0.00 0.00 0.00 52 1016.9
20260504100529 15 353 12.9 19.3 0.00 0.00 0.00 69 1017.5
20260504081027 14 318 6.4 9.7 0.00 0.00 0.00 79 1017.2
20260504080525 14 334 3.2 12.9 0.00 0.00 0.00 78 1017.1
20260504050512 12 303 1.6 8.0 0.00 0.00 0.00 80 1015.5
20260504050010 12 312 3.2 8.0 0.00 0.00 0.00 80 1015.5
20260504045529 12 274 6.4 9.7 0.00 0.00 0.00 80 1015.5
20260504045031 12 301 4.8 12.9 0.00 0.00 0.00 80 1015.5
20260504044549 12 334 8.0 14.5 0.00 0.00 0.00 80 1015.5
20260504044030 12 286 9.7 14.5 0.00 0.00 0.00 80 1015.5
20260504043528 12 312 8.0 14.5 0.00 0.00 0.00 80 1015.4
20260504043035 12 294 8.0 16.1 0.00 0.00 0.00 80 1015.4
20260504042523 12 291 8.0 17.7 0.00 0.00 0.00 80 1015.5
20260504042014 12 297 9.7 17.7 0.00 0.00 0.00 80 1015.4
20260504041546 12 325 9.7 17.7 0.00 0.00 0.00 80 1015.5
20260504041023 12 316 11.3 17.7 0.00 0.00 0.00 80 1015.5
20260504040528 12 334 8.0 17.7 0.00 0.00 0.00 80 1015.5
20260504040046 12 303 9.7 16.1 0.00 0.00 0.00 80 1015.5
20260504035521 12 287 11.3 19.3 0.00 0.00 0.00 80 1015.5
20260504035019 12 308 11.3 19.3 0.00 0.00 0.00 79 1015.4
20260504034033 12 281 9.7 17.7 0.00 0.00 0.00 79 1015.4
20260504033529 12 281 12.9 17.7 0.00 0.00 0.00 79 1015.5
20260504033047 12 298 9.7 14.5 0.00 0.00 0.00 79 1015.6
20260504032521 12 280 9.7 14.5 0.00 0.00 0.00 79 1015.6
20260504032020 12 309 8.0 14.5 0.00 0.00 0.00 79 1015.6
20260504031530 13 313 8.0 14.5 0.00 0.00 0.00 79 1015.6
20260504031027 13 321 4.8 12.9 0.00 0.00 0.00 79 1015.6
20260504030533 13 315 8.0 14.5 0.00 0.00 0.00 79 1015.6
20260504030058 13 343 9.7 14.5 0.00 0.00 0.00 80 1015.6
20260504025525 13 311 8.0 12.9 0.00 0.00 0.00 80 1015.6
20260504025022 13 302 6.4 16.1 0.00 0.00 0.00 80 1015.6
20260504024527 13 300 9.7 16.1 0.00 0.00 0.00 80 1015.6
20260504024045 13 289 9.7 16.1 0.00 0.00 0.00 80 1015.6
20260504023530 13 309 9.7 14.5 0.00 0.00 0.00 80 1015.6